Location: Delettes
(50.6178°N, 2.2123°E)
Time: 07:23:38
(UTC+00:00)

Cosmos 1655 Rocket - Pass Details

Date: 27 February 2020
Orbit: 970 x 1006 km, 82.9° (Epoch: 30 March)

Event Time Altitude Azimuth Distance (km) Brightness Sun altitude
Rises 20:18:50 0° 351° (N) 3,749 7.5 -27.4°
Reaches altitude 10° 20:21:25 10° 354° (N) 2,793 6.7 -27.8°
Enters shadow 20:27:25 68° 51° (NE) 1,078 4.0 -28.7°
